date,time,SUV Intensity [MED/Hr],UV Index,Daily total [MED],Since Last [MED]
30/04/2022,00:07:29,0.000,0.0,0.0,0.0
30/04/2022,00:08:31,0.000,0.0,0.0,0.0
30/04/2022,00:09:30,0.000,0.0,0.0,0.0
30/04/2022,00:10:31,0.001,0.0,0.0,0.0
30/04/2022,00:11:30,0.000,0.0,0.0,0.0
30/04/2022,00:12:30,0.000,0.0,0.0,0.0
30/04/2022,00:13:30,0.000,0.0,0.0,0.0
30/04/2022,00:14:31,0.001,0.0,0.0,0.0
30/04/2022,00:15:31,0.000,0.0,0.0,0.0
30/04/2022,00:16:30,0.000,0.0,0.0,0.0
30/04/2022,00:17:30,0.000,0.0,0.0,0.0
30/04/2022,00:18:31,0.001,0.0,0.0,0.0
30/04/2022,00:19:30,-0.001,0.0,0.0,0.0
30/04/2022,00:20:31,0.001,0.0,0.0,0.0
30/04/2022,00:21:30,0.000,0.0,0.0,0.0
30/04/2022,00:22:31,-0.001,0.0,0.0,0.0
30/04/2022,00:23:31,0.001,0.0,0.0,0.0
30/04/2022,00:24:38,-0.001,0.0,0.0,0.0
30/04/2022,00:26:31,-0.001,0.0,0.0,0.0
30/04/2022,00:27:31,0.000,0.0,0.0,0.0
30/04/2022,00:28:31,0.000,0.0,0.0,0.0
30/04/2022,00:29:30,0.000,0.0,0.0,0.0
30/04/2022,00:30:31,0.000,0.0,0.0,0.0
30/04/2022,00:31:39,0.000,0.0,0.0,0.0
30/04/2022,00:32:30,0.000,0.0,0.0,0.0
30/04/2022,00:33:30,0.000,0.0,0.0,0.0
30/04/2022,00:34:31,0.000,0.0,0.0,0.0
30/04/2022,00:35:30,0.000,0.0,0.0,0.0
30/04/2022,00:36:31,0.000,0.0,0.0,0.0
30/04/2022,00:37:30,0.000,0.0,0.0,0.0
30/04/2022,00:38:30,0.001,0.0,0.0,0.0
30/04/2022,00:39:38,0.001,0.0,0.0,0.0
30/04/2022,00:40:31,-0.000,0.0,0.0,0.0
30/04/2022,00:41:30,0.001,0.0,0.0,0.0
30/04/2022,00:42:31,0.000,0.0,0.0,0.0
30/04/2022,00:43:30,0.001,0.0,0.0,0.0
30/04/2022,00:44:31,0.000,0.0,0.0,0.0
30/04/2022,00:45:30,0.000,0.0,0.0,0.0
30/04/2022,00:46:31,-0.001,0.0,0.0,0.0
30/04/2022,00:47:31,0.000,0.0,0.0,0.0
30/04/2022,00:48:30,-0.001,0.0,0.0,0.0
30/04/2022,00:49:30,0.000,0.0,0.0,0.0
30/04/2022,00:50:30,0.000,0.0,0.0,0.0
30/04/2022,00:51:31,-0.000,0.0,0.0,0.0
30/04/2022,00:52:30,-0.001,0.0,0.0,0.0
30/04/2022,00:53:31,0.000,0.0,0.0,0.0
30/04/2022,00:54:30,0.000,0.0,0.0,0.0
30/04/2022,00:55:31,0.001,0.0,0.0,0.0
30/04/2022,00:56:31,0.000,0.0,0.0,0.0
30/04/2022,00:57:39,0.001,0.0,0.0,0.0
30/04/2022,00:58:30,0.000,0.0,0.0,0.0
30/04/2022,00:59:30,0.000,0.0,0.0,0.0
30/04/2022,01:00:31,0.000,0.0,0.0,0.0
30/04/2022,01:01:31,0.000,0.0,0.0,0.0
30/04/2022,01:02:30,0.001,0.0,0.0,0.0
30/04/2022,01:03:31,-0.000,0.0,0.0,0.0
30/04/2022,01:04:30,0.000,0.0,0.0,0.0
30/04/2022,01:05:30,0.000,0.0,0.0,0.0
30/04/2022,01:06:30,0.001,0.0,0.0,0.0
30/04/2022,01:07:38,-0.000,0.0,0.0,0.0
30/04/2022,01:08:38,0.000,0.0,0.0,0.0
30/04/2022,01:09:31,0.001,0.0,0.0,0.0
30/04/2022,01:10:30,0.000,0.0,0.0,0.0
30/04/2022,01:11:30,0.001,0.0,0.0,0.0
30/04/2022,01:12:31,0.000,0.0,0.0,0.0
30/04/2022,01:13:31,-0.000,0.0,0.0,0.0
30/04/2022,01:14:30,0.000,0.0,0.0,0.0
30/04/2022,01:15:39,0.000,0.0,0.0,0.0
30/04/2022,01:16:30,-0.001,0.0,0.0,0.0
30/04/2022,01:17:31,0.000,0.0,0.0,0.0
30/04/2022,01:18:39,0.001,0.0,0.0,0.0
30/04/2022,01:20:31,0.000,0.0,0.0,0.0
30/04/2022,01:21:31,0.001,0.0,0.0,0.0
30/04/2022,01:22:39,0.001,0.0,0.0,0.0
30/04/2022,01:23:30,0.000,0.0,0.0,0.0
30/04/2022,01:24:30,0.000,0.0,0.0,0.0
30/04/2022,01:25:30,0.000,0.0,0.0,0.0
30/04/2022,01:26:39,0.000,0.0,0.0,0.0
30/04/2022,01:27:30,0.001,0.0,0.0,0.0
30/04/2022,01:28:31,0.000,0.0,0.0,0.0
30/04/2022,01:29:30,-0.000,0.0,0.0,0.0
30/04/2022,01:30:31,0.001,0.0,0.0,0.0
30/04/2022,01:31:31,0.000,0.0,0.0,0.0
30/04/2022,01:32:30,0.000,0.0,0.0,0.0
30/04/2022,01:33:39,0.000,0.0,0.0,0.0
30/04/2022,01:34:30,0.001,0.0,0.0,0.0
30/04/2022,01:35:31,0.000,0.0,0.0,0.0
30/04/2022,01:36:39,0.001,0.0,0.0,0.0
30/04/2022,01:37:30,0.000,0.0,0.0,0.0
30/04/2022,01:38:30,0.001,0.0,0.0,0.0
30/04/2022,01:39:31,-0.000,0.0,0.0,0.0
30/04/2022,01:40:30,0.000,0.0,0.0,0.0
30/04/2022,01:41:31,0.000,0.0,0.0,0.0
30/04/2022,01:42:30,0.001,0.0,0.0,0.0
30/04/2022,01:43:31,0.000,0.0,0.0,0.0
30/04/2022,01:44:31,0.001,0.0,0.0,0.0
30/04/2022,01:45:31,0.001,0.0,0.0,0.0
30/04/2022,01:46:30,0.001,0.0,0.0,0.0
30/04/2022,01:47:31,-0.000,0.0,0.0,0.0
30/04/2022,01:48:31,0.001,0.0,0.0,0.0
30/04/2022,01:49:30,0.001,0.0,0.0,0.0
30/04/2022,01:50:31,0.001,0.0,0.0,0.0
30/04/2022,01:51:39,0.000,0.0,0.0,0.0
30/04/2022,01:52:30,0.001,0.0,0.0,0.0
30/04/2022,01:53:31,0.000,0.0,0.0,0.0
30/04/2022,01:54:31,0.000,0.0,0.0,0.0
30/04/2022,01:55:30,0.000,0.0,0.0,0.0
30/04/2022,01:56:31,0.000,0.0,0.0,0.0
30/04/2022,01:57:31,0.000,0.0,0.0,0.0
30/04/2022,01:58:30,0.001,0.0,0.0,0.0
30/04/2022,01:59:31,0.001,0.0,0.0,0.0
30/04/2022,02:00:31,0.000,0.0,0.0,0.0
30/04/2022,02:01:31,0.001,0.0,0.0,0.0
30/04/2022,02:02:39,0.000,0.0,0.0,0.0
30/04/2022,02:03:32,0.000,0.0,0.0,0.0
30/04/2022,02:04:31,-0.001,0.0,0.0,0.0
30/04/2022,02:05:31,-0.000,0.0,0.0,0.0
30/04/2022,02:06:31,0.000,0.0,0.0,0.0
30/04/2022,02:07:30,0.001,0.0,0.0,0.0
30/04/2022,02:09:31,0.001,0.0,0.0,0.0
30/04/2022,02:10:30,-0.000,0.0,0.0,0.0
30/04/2022,02:11:31,0.000,0.0,0.0,0.0
30/04/2022,02:12:31,0.000,0.0,0.0,0.0
30/04/2022,02:13:30,0.000,0.0,0.0,0.0
30/04/2022,02:14:31,0.001,0.0,0.0,0.0
30/04/2022,02:15:31,0.001,0.0,0.0,0.0
30/04/2022,02:16:31,0.001,0.0,0.0,0.0
30/04/2022,02:17:39,-0.001,0.0,0.0,0.0
30/04/2022,02:19:31,0.000,0.0,0.0,0.0
30/04/2022,02:20:30,0.000,0.0,0.0,0.0
30/04/2022,02:21:31,0.001,0.0,0.0,0.0
30/04/2022,02:22:30,0.000,0.0,0.0,0.0
30/04/2022,02:23:31,0.000,0.0,0.0,0.0
30/04/2022,02:24:31,-0.001,0.0,0.0,0.0
30/04/2022,02:25:31,-0.000,0.0,0.0,0.0
30/04/2022,02:26:31,-0.000,0.0,0.0,0.0
30/04/2022,02:27:39,0.000,0.0,0.0,0.0
30/04/2022,02:28:38,0.001,0.0,0.0,0.0
30/04/2022,02:29:30,0.001,0.0,0.0,0.0
30/04/2022,02:30:30,0.001,0.0,0.0,0.0
30/04/2022,02:31:31,0.001,0.0,0.0,0.0
30/04/2022,02:32:31,0.001,0.0,0.0,0.0
30/04/2022,02:33:30,-0.000,0.0,0.0,0.0
30/04/2022,02:34:31,0.000,0.0,0.0,0.0
30/04/2022,02:35:31,0.002,0.0,0.0,0.0
30/04/2022,02:36:30,0.000,0.0,0.0,0.0
30/04/2022,02:37:31,0.001,0.0,0.0,0.0
30/04/2022,02:38:39,0.000,0.0,0.0,0.0
30/04/2022,02:39:38,0.001,0.0,0.0,0.0
30/04/2022,02:40:30,-0.001,0.0,0.0,0.0
30/04/2022,02:41:30,0.001,0.0,0.0,0.0
30/04/2022,02:42:39,-0.000,0.0,0.0,0.0
30/04/2022,02:44:31,0.001,0.0,0.0,0.0
30/04/2022,02:45:30,0.001,0.0,0.0,0.0
30/04/2022,02:46:31,-0.001,0.0,0.0,0.0
30/04/2022,02:47:31,0.001,0.0,0.0,0.0
30/04/2022,02:48:34,0.000,0.0,0.0,0.0
30/04/2022,02:50:32,0.000,0.0,0.0,0.0
30/04/2022,02:51:31,0.001,0.0,0.0,0.0
30/04/2022,02:52:31,0.001,0.0,0.0,0.0
30/04/2022,02:53:31,0.001,0.0,0.0,0.0
30/04/2022,02:54:30,-0.001,0.0,0.0,0.0
30/04/2022,02:55:30,0.000,0.0,0.0,0.0
30/04/2022,02:56:30,-0.000,0.0,0.0,0.0
30/04/2022,02:57:39,0.000,0.0,0.0,0.0
30/04/2022,02:58:30,0.001,0.0,0.0,0.0
30/04/2022,02:59:31,0.000,0.0,0.0,0.0
30/04/2022,03:00:31,0.001,0.0,0.0,0.0
30/04/2022,03:01:31,0.001,0.0,0.0,0.0
30/04/2022,03:02:31,0.001,0.0,0.0,0.0
30/04/2022,03:03:30,0.000,0.0,0.0,0.0
30/04/2022,03:04:31,0.001,0.0,0.0,0.0
30/04/2022,03:05:39,0.001,0.0,0.0,0.0
30/04/2022,03:07:32,0.001,0.0,0.0,0.0
30/04/2022,03:08:39,0.000,0.0,0.0,0.0
30/04/2022,03:09:31,0.001,0.0,0.0,0.0
30/04/2022,03:10:31,0.001,0.0,0.0,0.0
30/04/2022,03:11:31,0.000,0.0,0.0,0.0
30/04/2022,03:12:31,0.001,0.0,0.0,0.0
30/04/2022,03:13:31,0.001,0.0,0.0,0.0
30/04/2022,03:14:31,0.000,0.0,0.0,0.0
30/04/2022,03:15:39,0.001,0.0,0.0,0.0
30/04/2022,03:16:31,0.001,0.0,0.0,0.0
30/04/2022,03:17:31,0.000,0.0,0.0,0.0
30/04/2022,03:18:30,-0.001,0.0,0.0,0.0
30/04/2022,03:19:31,-0.000,0.0,0.0,0.0
30/04/2022,03:20:30,0.001,0.0,0.0,0.0
30/04/2022,03:21:30,0.001,0.0,0.0,0.0
30/04/2022,03:22:30,0.001,0.0,0.0,0.0
30/04/2022,03:23:31,0.001,0.0,0.0,0.0
30/04/2022,03:24:31,0.001,0.0,0.0,0.0
30/04/2022,03:25:31,0.001,0.0,0.0,0.0
30/04/2022,03:26:31,0.000,0.0,0.0,0.0
30/04/2022,03:27:30,0.001,0.0,0.0,0.0
30/04/2022,03:28:31,0.002,0.0,0.0,0.0
30/04/2022,03:29:31,0.001,0.0,0.0,0.0
30/04/2022,03:30:39,0.001,0.0,0.0,0.0
30/04/2022,03:31:32,0.001,0.0,0.0,0.0
30/04/2022,03:32:31,0.001,0.0,0.0,0.0
30/04/2022,03:33:31,0.001,0.0,0.0,0.0
30/04/2022,03:34:30,-0.000,0.0,0.0,0.0
30/04/2022,03:35:31,0.001,0.0,0.0,0.0
30/04/2022,03:36:30,0.001,0.0,0.0,0.0
30/04/2022,03:37:31,0.001,0.0,0.0,0.0
30/04/2022,03:38:30,0.001,0.0,0.0,0.0
30/04/2022,03:39:31,0.001,0.0,0.0,0.0
30/04/2022,03:40:31,0.002,0.0,0.0,0.0
30/04/2022,03:41:31,0.001,0.0,0.0,0.0
30/04/2022,03:42:30,0.000,0.0,0.0,0.0
30/04/2022,03:43:31,0.001,0.0,0.0,0.0
30/04/2022,03:44:30,0.000,0.0,0.0,0.0
30/04/2022,03:45:39,0.001,0.0,0.0,0.0
30/04/2022,03:46:31,-0.001,0.0,0.0,0.0
30/04/2022,03:47:31,0.001,0.0,0.0,0.0
30/04/2022,03:48:30,0.001,0.0,0.0,0.0
30/04/2022,03:49:31,0.001,0.0,0.0,0.0
30/04/2022,03:50:31,0.001,0.0,0.0,0.0
30/04/2022,03:51:30,-0.000,0.0,0.0,0.0
30/04/2022,03:52:31,0.000,0.0,0.0,0.0
30/04/2022,03:53:30,0.001,0.0,0.0,0.0
30/04/2022,03:54:31,0.001,0.0,0.0,0.0
30/04/2022,03:55:31,0.000,0.0,0.0,0.0
30/04/2022,03:56:39,0.001,0.0,0.0,0.0
30/04/2022,03:57:30,0.001,0.0,0.0,0.0
30/04/2022,03:58:31,0.001,0.0,0.0,0.0
30/04/2022,03:59:30,0.001,0.0,0.0,0.0
30/04/2022,04:00:31,0.001,0.0,0.0,0.0
30/04/2022,04:01:32,-0.000,0.0,0.0,0.0
30/04/2022,04:02:31,0.001,0.0,0.0,0.0
30/04/2022,04:03:31,0.001,0.0,0.0,0.0
30/04/2022,04:04:30,0.001,0.0,0.0,0.0
30/04/2022,04:05:31,-0.000,0.0,0.0,0.0
30/04/2022,04:06:31,-0.000,0.0,0.0,0.0
30/04/2022,04:07:30,-0.000,0.0,0.0,0.0
30/04/2022,04:08:31,-0.000,0.0,0.0,0.0
30/04/2022,04:09:30,0.001,0.0,0.0,0.0
30/04/2022,04:10:30,0.001,0.0,0.0,0.0
30/04/2022,04:11:31,0.001,0.0,0.0,0.0
30/04/2022,04:12:31,0.001,0.0,0.0,0.0
30/04/2022,04:13:31,0.001,0.0,0.0,0.0
30/04/2022,04:14:30,0.001,0.0,0.0,0.0
30/04/2022,04:15:31,0.002,0.0,0.0,0.0
30/04/2022,04:16:31,0.001,0.0,0.0,0.0
30/04/2022,04:17:31,0.001,0.0,0.0,0.0
30/04/2022,04:18:31,0.001,0.0,0.0,0.0
30/04/2022,04:19:31,0.001,0.0,0.0,0.0
30/04/2022,04:20:31,0.000,0.0,0.0,0.0
30/04/2022,04:21:39,0.001,0.0,0.0,0.0
30/04/2022,04:23:40,0.001,0.0,0.0,0.0
30/04/2022,04:25:31,0.001,0.0,0.0,0.0
30/04/2022,04:26:31,0.001,0.0,0.0,0.0
30/04/2022,04:27:31,0.001,0.0,0.0,0.0
30/04/2022,04:28:30,0.002,0.0,0.0,0.0
30/04/2022,04:29:39,0.001,0.0,0.0,0.0
30/04/2022,04:30:31,0.002,0.0,0.0,0.0
30/04/2022,04:31:31,0.001,0.0,0.0,0.0
30/04/2022,04:32:30,0.000,0.0,0.0,0.0
30/04/2022,04:33:30,0.002,0.0,0.0,0.0
30/04/2022,04:34:31,0.003,0.0,0.0,0.0
30/04/2022,04:35:31,0.001,0.0,0.0,0.0
30/04/2022,04:36:31,0.002,0.0,0.0,0.0
30/04/2022,04:37:31,0.002,0.0,0.0,0.0
30/04/2022,04:38:31,0.002,0.0,0.0,0.0
30/04/2022,04:39:31,0.002,0.0,0.0,0.0
30/04/2022,04:40:31,0.003,0.0,0.0,0.0
30/04/2022,04:41:43,0.002,0.0,0.0,0.0
30/04/2022,04:43:31,0.003,0.0,0.0,0.0
30/04/2022,04:44:40,0.003,0.0,0.0,0.0
30/04/2022,04:45:31,0.003,0.0,0.0,0.0
30/04/2022,04:46:31,0.003,0.0,0.0,0.0
30/04/2022,04:47:30,0.003,0.0,0.0,0.0
30/04/2022,04:48:31,0.003,0.0,0.0,0.0
30/04/2022,04:49:31,0.004,0.0,0.0,0.0
30/04/2022,04:50:31,0.005,0.0,0.0,0.0
30/04/2022,04:51:31,0.004,0.0,0.0,0.0
30/04/2022,04:52:31,0.004,0.0,0.0,0.0
30/04/2022,04:53:31,0.005,0.0,0.0,0.0
30/04/2022,04:54:39,0.005,0.0,0.0,0.0
30/04/2022,04:56:40,0.005,0.0,0.0,0.0
30/04/2022,04:58:31,0.006,0.0,0.0,0.0
30/04/2022,04:59:31,0.007,0.0,0.0,0.0
30/04/2022,05:00:31,0.006,0.0,0.0,0.0
30/04/2022,05:01:31,0.006,0.0,0.0,0.0
30/04/2022,05:02:30,0.007,0.0,0.0,0.0
30/04/2022,05:03:31,0.007,0.0,0.0,0.0
30/04/2022,05:04:31,0.007,0.0,0.001,0.001
30/04/2022,05:05:31,0.007,0.0,0.001,0.0
30/04/2022,05:06:31,0.008,0.0,0.001,0.0
30/04/2022,05:07:31,0.009,0.0,0.001,0.0
30/04/2022,05:08:31,0.008,0.0,0.001,0.0
30/04/2022,05:09:31,0.010,0.0,0.001,0.0
30/04/2022,05:10:39,0.009,0.0,0.001,0.0
30/04/2022,05:12:31,0.011,0.0,0.002,0.001
30/04/2022,05:13:39,0.011,0.0,0.002,0.0
30/04/2022,05:14:30,0.011,0.0,0.002,0.0
30/04/2022,05:15:31,0.012,0.0,0.002,0.0
30/04/2022,05:16:31,0.013,0.0,0.003,0.001
30/04/2022,05:17:30,0.013,0.0,0.003,0.0
30/04/2022,05:18:31,0.014,0.0,0.003,0.0
30/04/2022,05:19:31,0.014,0.0,0.003,0.0
30/04/2022,05:20:31,0.014,0.0,0.003,0.0
30/04/2022,05:21:31,0.015,0.0,0.004,0.001
30/04/2022,05:22:33,0.015,0.0,0.004,0.0
30/04/2022,05:23:31,0.016,0.0,0.004,0.0
30/04/2022,05:24:30,0.017,0.0,0.004,0.0
30/04/2022,05:25:30,0.018,0.0,0.005,0.001
30/04/2022,05:26:31,0.018,0.0,0.005,0.0
30/04/2022,05:27:31,0.018,0.0,0.005,0.0
30/04/2022,05:28:39,0.018,0.0,0.006,0.001
30/04/2022,05:30:32,0.021,0.0,0.006,0.0
30/04/2022,05:31:31,0.020,0.0,0.007,0.001
30/04/2022,05:32:30,0.021,0.0,0.007,0.0
30/04/2022,05:33:31,0.022,0.0,0.007,0.0
30/04/2022,05:34:30,0.024,0.0,0.008,0.001
30/04/2022,05:35:31,0.024,0.0,0.008,0.0
30/04/2022,05:36:31,0.025,0.0,0.008,0.0
30/04/2022,05:37:31,0.025,0.0,0.009,0.001
30/04/2022,05:38:31,0.026,0.0,0.009,0.0
30/04/2022,05:39:40,0.027,0.0,0.01,0.001
30/04/2022,05:41:31,0.029,0.0,0.011,0.001
30/04/2022,05:42:31,0.029,0.0,0.011,0.0
30/04/2022,05:43:31,0.030,0.0,0.012,0.001
30/04/2022,05:44:31,0.031,0.0,0.012,0.0
30/04/2022,05:45:31,0.032,0.0,0.013,0.001
30/04/2022,05:46:31,0.033,0.0,0.013,0.0
30/04/2022,05:47:31,0.034,0.0,0.014,0.001
30/04/2022,05:48:31,0.035,0.0,0.014,0.0
30/04/2022,05:49:31,0.036,0.0,0.015,0.001
30/04/2022,05:50:31,0.036,0.0,0.016,0.001
30/04/2022,05:51:31,0.039,0.0,0.016,0.0
30/04/2022,05:52:31,0.039,0.0,0.017,0.001
30/04/2022,05:53:31,0.041,0.0,0.018,0.001
30/04/2022,05:54:39,0.042,0.0,0.018,0.0
30/04/2022,05:55:31,0.043,0.0,0.019,0.001
30/04/2022,05:56:43,0.044,0.0,0.02,0.001
30/04/2022,05:58:32,0.046,0.0,0.021,0.001
30/04/2022,05:59:31,0.047,0.0,0.022,0.001
30/04/2022,06:00:40,0.049,0.0,0.023,0.001
30/04/2022,06:01:31,0.050,0.0,0.024,0.001
30/04/2022,06:02:39,0.052,0.0,0.025,0.001
30/04/2022,06:03:30,0.053,0.0,0.025,0.0
30/04/2022,06:04:31,0.054,0.0,0.026,0.001
30/04/2022,06:05:31,0.056,0.0,0.027,0.001
30/04/2022,06:06:31,0.057,0.0,0.028,0.001
30/04/2022,06:07:31,0.059,0.0,0.029,0.001
30/04/2022,06:08:31,0.060,0.0,0.03,0.001
30/04/2022,06:09:31,0.061,0.0,0.031,0.001
30/04/2022,06:10:31,0.063,0.0,0.032,0.001
30/04/2022,06:11:31,0.065,0.0,0.033,0.001
30/04/2022,06:12:31,0.066,0.0,0.034,0.001
30/04/2022,06:13:39,0.067,0.0,0.036,0.002
30/04/2022,06:15:32,0.071,0.0,0.038,0.002
30/04/2022,06:16:31,0.073,0.0,0.039,0.001
30/04/2022,06:17:31,0.074,0.0,0.04,0.001
30/04/2022,06:18:31,0.076,0.0,0.041,0.001
30/04/2022,06:19:31,0.078,0.0,0.043,0.002
30/04/2022,06:20:40,0.080,0.0,0.044,0.001
30/04/2022,06:21:31,0.081,0.0,0.045,0.001
30/04/2022,06:22:31,0.083,0.0,0.047,0.002
30/04/2022,06:23:31,0.086,0.0,0.048,0.001
30/04/2022,06:24:31,0.088,0.0,0.05,0.002
30/04/2022,06:25:31,0.091,0.0,0.051,0.001
30/04/2022,06:26:31,0.092,0.0,0.053,0.002
30/04/2022,06:27:31,0.095,0.0,0.054,0.001
30/04/2022,06:28:40,0.097,0.0,0.056,0.002
30/04/2022,06:30:32,0.102,0.0,0.059,0.003
30/04/2022,06:31:31,0.104,0.0,0.061,0.002
30/04/2022,06:32:31,0.106,0.0,0.063,0.002
30/04/2022,06:33:31,0.109,0.0,0.064,0.001
30/04/2022,06:34:31,0.111,0.0,0.066,0.002
30/04/2022,06:35:31,0.113,0.0,0.068,0.002
30/04/2022,06:36:31,0.117,0.0,0.07,0.002
30/04/2022,06:37:31,0.118,0.0,0.072,0.002
30/04/2022,06:38:31,0.121,0.0,0.074,0.002
30/04/2022,06:39:31,0.123,0.0,0.076,0.002
30/04/2022,06:40:31,0.126,0.0,0.078,0.002
30/04/2022,06:41:31,0.128,0.0,0.08,0.002
30/04/2022,06:42:31,0.131,0.0,0.082,0.002
30/04/2022,06:43:39,0.134,0.0,0.085,0.003
30/04/2022,06:44:30,0.136,0.0,0.087,0.002
30/04/2022,06:45:31,0.139,0.0,0.089,0.002
30/04/2022,06:46:40,0.142,0.0,0.092,0.003
30/04/2022,06:47:31,0.145,0.0,0.094,0.002
30/04/2022,06:48:31,0.147,0.0,0.096,0.002
30/04/2022,06:49:31,0.151,0.0,0.099,0.003
30/04/2022,06:50:31,0.155,0.0,0.101,0.002
30/04/2022,06:51:31,0.157,0.0,0.104,0.003
30/04/2022,06:52:31,0.160,0.0,0.106,0.002
30/04/2022,06:53:31,0.163,0.0,0.109,0.003
30/04/2022,06:54:39,0.166,0.0,0.112,0.003
30/04/2022,06:55:31,0.169,0.0,0.115,0.003
30/04/2022,06:56:31,0.173,0.0,0.118,0.003
30/04/2022,06:57:31,0.176,0.0,0.12,0.002
30/04/2022,06:58:31,0.181,0.0,0.123,0.003
30/04/2022,06:59:31,0.182,0.0,0.126,0.003
30/04/2022,07:00:48,0.187,0.0,0.13,0.004
30/04/2022,07:02:40,0.192,0.0,0.136,0.006
30/04/2022,07:04:32,0.199,0.0,0.142,0.006
30/04/2022,07:05:31,0.202,0.0,0.146,0.004
30/04/2022,07:06:32,0.206,0.0,0.149,0.003
30/04/2022,07:07:31,0.209,0.0,0.152,0.003
30/04/2022,07:08:40,0.213,0.0,0.157,0.005
30/04/2022,07:10:40,0.222,1.0,0.164,0.007
30/04/2022,07:12:32,0.229,1.0,0.171,0.007
30/04/2022,07:13:31,0.232,1.0,0.175,0.004
30/04/2022,07:14:31,0.237,1.0,0.179,0.004
30/04/2022,07:15:31,0.242,1.0,0.183,0.004
30/04/2022,07:16:31,0.246,1.0,0.186,0.003
30/04/2022,07:17:31,0.249,1.0,0.191,0.005
30/04/2022,07:18:31,0.254,1.0,0.195,0.004
30/04/2022,07:19:31,0.258,1.0,0.199,0.004
30/04/2022,07:20:32,0.262,1.0,0.204,0.005
30/04/2022,07:21:31,0.268,1.0,0.208,0.004
30/04/2022,07:22:31,0.272,1.0,0.212,0.004
30/04/2022,07:23:40,0.276,1.0,0.218,0.006
30/04/2022,07:25:32,0.284,1.0,0.226,0.008
30/04/2022,07:26:31,0.289,1.0,0.231,0.005
30/04/2022,07:27:34,0.295,1.0,0.236,0.005
30/04/2022,07:29:32,0.305,1.0,0.246,0.01
30/04/2022,07:30:31,0.308,1.0,0.251,0.005
30/04/2022,07:31:39,0.314,1.0,0.257,0.006
30/04/2022,07:32:31,0.318,1.0,0.261,0.004
30/04/2022,07:33:32,0.324,1.0,0.267,0.006
30/04/2022,07:34:31,0.327,1.0,0.272,0.005
30/04/2022,07:35:31,0.332,1.0,0.278,0.006
30/04/2022,07:36:31,0.338,1.0,0.283,0.005
30/04/2022,07:37:39,0.344,1.0,0.29,0.007
30/04/2022,07:38:39,0.351,1.0,0.295,0.005
30/04/2022,07:39:31,0.355,1.0,0.301,0.006
30/04/2022,07:40:31,0.360,1.0,0.307,0.006
30/04/2022,07:41:31,0.366,1.0,0.313,0.006
30/04/2022,07:42:31,0.372,1.0,0.319,0.006
30/04/2022,07:43:31,0.377,1.0,0.325,0.006
30/04/2022,07:44:31,0.382,1.0,0.331,0.006
30/04/2022,07:45:40,0.389,1.0,0.339,0.008
30/04/2022,07:47:32,0.400,1.0,0.351,0.012
30/04/2022,07:48:31,0.406,1.0,0.358,0.007
30/04/2022,07:49:31,0.411,1.0,0.365,0.007
30/04/2022,07:50:31,0.418,1.0,0.371,0.006
30/04/2022,07:51:31,0.424,1.0,0.379,0.008
30/04/2022,07:52:31,0.430,1.0,0.385,0.006
30/04/2022,07:53:31,0.436,1.0,0.393,0.008
30/04/2022,07:54:32,0.443,1.0,0.4,0.007
30/04/2022,07:55:31,0.450,1.0,0.407,0.007
30/04/2022,07:56:32,0.456,1.0,0.415,0.008
30/04/2022,07:57:31,0.461,1.0,0.423,0.008
30/04/2022,07:58:31,0.456,1.0,0.43,0.007
30/04/2022,07:59:31,0.456,1.0,0.438,0.008
30/04/2022,08:00:39,0.475,1.0,0.447,0.009
30/04/2022,08:01:30,0.481,1.0,0.454,0.007
30/04/2022,08:02:31,0.493,1.0,0.462,0.008
30/04/2022,08:03:39,0.506,1.0,0.471,0.009
30/04/2022,08:04:30,0.512,1.0,0.479,0.008
30/04/2022,08:05:31,0.518,1.0,0.487,0.008
30/04/2022,08:06:31,0.528,1.0,0.496,0.009
30/04/2022,08:07:32,0.534,1.0,0.505,0.009
30/04/2022,08:08:31,0.541,1.0,0.514,0.009
30/04/2022,08:09:31,0.546,1.0,0.523,0.009
30/04/2022,08:10:31,0.554,1.0,0.532,0.009
30/04/2022,08:11:32,0.561,1.0,0.541,0.009
30/04/2022,08:12:31,0.567,1.0,0.551,0.01
30/04/2022,08:13:31,0.573,1.0,0.56,0.009
30/04/2022,08:14:31,0.575,1.0,0.57,0.01
30/04/2022,08:15:31,0.580,1.0,0.579,0.009
30/04/2022,08:16:31,0.580,1.0,0.589,0.01
30/04/2022,08:17:31,0.584,1.0,0.599,0.01
30/04/2022,08:18:32,0.583,1.0,0.609,0.01
30/04/2022,08:19:32,0.588,1.0,0.618,0.009
30/04/2022,08:20:31,0.589,1.0,0.628,0.01
30/04/2022,08:21:39,0.599,1.0,0.639,0.011
30/04/2022,08:22:31,0.607,1.0,0.648,0.009
30/04/2022,08:23:31,0.614,1.0,0.658,0.01
30/04/2022,08:24:32,0.616,1.0,0.669,0.011
30/04/2022,08:25:32,0.623,1.0,0.679,0.01
30/04/2022,08:26:31,0.625,1.0,0.689,0.01
30/04/2022,08:27:31,0.633,1.0,0.7,0.011
30/04/2022,08:28:31,0.637,1.0,0.71,0.01
30/04/2022,08:29:31,0.649,1.0,0.721,0.011
30/04/2022,08:30:32,0.655,2.0,0.732,0.011
30/04/2022,08:31:31,0.660,2.0,0.743,0.011
30/04/2022,08:32:32,0.669,2.0,0.754,0.011
30/04/2022,08:33:32,0.683,2.0,0.765,0.011
30/04/2022,08:34:31,0.692,2.0,0.776,0.011
30/04/2022,08:35:32,0.700,2.0,0.788,0.012
30/04/2022,08:36:31,0.710,2.0,0.8,0.012
30/04/2022,08:37:31,0.723,2.0,0.812,0.012
30/04/2022,08:38:32,0.734,2.0,0.824,0.012
30/04/2022,08:39:39,0.741,2.0,0.838,0.014
30/04/2022,08:40:31,0.748,2.0,0.848,0.01
30/04/2022,08:41:32,0.735,2.0,0.861,0.013
30/04/2022,08:42:39,0.763,2.0,0.875,0.014
30/04/2022,08:44:32,0.775,2.0,0.899,0.024
30/04/2022,08:45:31,0.769,2.0,0.912,0.013
30/04/2022,08:46:31,0.796,2.0,0.924,0.012
30/04/2022,08:47:31,0.805,2.0,0.938,0.014
30/04/2022,08:48:32,0.808,2.0,0.952,0.014
30/04/2022,08:49:31,0.817,2.0,0.965,0.013
30/04/2022,08:50:31,0.818,2.0,0.979,0.014
30/04/2022,08:51:31,0.815,2.0,0.992,0.013
30/04/2022,08:52:32,0.832,2.0,1.006,0.014
30/04/2022,08:53:31,0.840,2.0,1.02,0.014
30/04/2022,08:54:31,0.849,2.0,1.034,0.014
30/04/2022,08:55:31,0.860,2.0,1.048,0.014
30/04/2022,08:56:31,0.877,2.0,1.063,0.015
30/04/2022,08:57:40,0.888,2.0,1.08,0.017
30/04/2022,08:58:32,0.890,2.0,1.092,0.012
30/04/2022,08:59:31,0.898,2.0,1.107,0.015
30/04/2022,09:00:40,0.905,2.0,1.124,0.017
30/04/2022,09:02:32,0.922,2.0,1.153,0.029
30/04/2022,09:03:32,0.930,2.0,1.168,0.015
30/04/2022,09:04:31,0.938,2.0,1.184,0.016
30/04/2022,09:05:31,0.946,2.0,1.199,0.015
30/04/2022,09:06:31,0.954,2.0,1.215,0.016
30/04/2022,09:07:31,0.964,2.0,1.231,0.016
30/04/2022,09:08:31,0.974,2.0,1.247,0.016
30/04/2022,09:09:31,0.984,2.0,1.264,0.017
30/04/2022,09:10:31,0.994,2.0,1.28,0.016
30/04/2022,09:11:31,0.998,2.0,1.297,0.017
30/04/2022,09:12:32,1.008,2.0,1.314,0.017
30/04/2022,09:13:32,1.012,2.0,1.33,0.016
30/04/2022,09:14:32,1.023,2.0,1.347,0.017
30/04/2022,09:15:32,1.029,2.0,1.365,0.018
30/04/2022,09:16:32,1.038,2.0,1.382,0.017
30/04/2022,09:17:31,1.047,2.0,1.399,0.017
30/04/2022,09:18:32,1.055,2.0,1.417,0.018
30/04/2022,09:19:32,1.054,2.0,1.434,0.017
30/04/2022,09:20:31,1.058,2.0,1.451,0.017
30/04/2022,09:21:39,1.067,2.0,1.472,0.021
30/04/2022,09:23:32,1.082,2.0,1.505,0.033
30/04/2022,09:24:31,1.104,3.0,1.524,0.019
30/04/2022,09:25:31,1.113,3.0,1.542,0.018
30/04/2022,09:26:32,1.120,3.0,1.561,0.019
30/04/2022,09:27:31,1.129,3.0,1.579,0.018
30/04/2022,09:28:31,1.136,3.0,1.598,0.019
30/04/2022,09:29:41,1.103,3.0,1.62,0.022
30/04/2022,09:31:32,1.076,2.0,1.653,0.033
30/04/2022,09:32:31,1.122,3.0,1.671,0.018
30/04/2022,09:33:31,1.147,3.0,1.689,0.018
30/04/2022,09:34:32,1.171,3.0,1.71,0.021
30/04/2022,09:35:31,1.164,3.0,1.729,0.019
30/04/2022,09:36:31,1.170,3.0,1.748,0.019
30/04/2022,09:37:31,1.178,3.0,1.767,0.019
30/04/2022,09:38:32,1.125,3.0,1.787,0.02
30/04/2022,09:39:31,1.173,3.0,1.806,0.019
30/04/2022,09:40:31,1.180,3.0,1.826,0.02
30/04/2022,09:41:31,1.173,3.0,1.845,0.019
30/04/2022,09:42:31,1.213,3.0,1.864,0.019
30/04/2022,09:43:31,1.240,3.0,1.885,0.021
30/04/2022,09:44:31,1.243,3.0,1.906,0.021
30/04/2022,09:45:31,1.243,3.0,1.926,0.02
30/04/2022,09:46:40,1.238,3.0,1.95,0.024
30/04/2022,09:48:32,1.221,3.0,1.989,0.039
30/04/2022,09:49:40,1.287,3.0,2.012,0.023
30/04/2022,09:51:32,1.294,3.0,2.052,0.04
30/04/2022,09:52:38,1.301,3.0,2.076,0.024
30/04/2022,09:53:31,1.290,3.0,2.095,0.019
30/04/2022,09:54:32,1.295,3.0,2.117,0.022
30/04/2022,09:55:32,1.300,3.0,2.139,0.022
30/04/2022,09:56:48,1.337,3.0,2.166,0.027
30/04/2022,09:58:32,1.305,3.0,2.205,0.039
30/04/2022,09:59:32,1.291,3.0,2.226,0.021
30/04/2022,10:00:41,1.289,3.0,2.251,0.025
30/04/2022,10:02:32,1.365,3.0,2.293,0.042
30/04/2022,10:03:31,1.378,3.0,2.315,0.022
30/04/2022,10:04:31,1.385,3.0,2.339,0.024
30/04/2022,10:05:31,1.360,3.0,2.361,0.022
30/04/2022,10:06:31,1.367,3.0,2.384,0.023
30/04/2022,10:07:32,1.375,3.0,2.407,0.023
30/04/2022,10:08:32,1.353,3.0,2.429,0.022
30/04/2022,10:09:32,1.387,3.0,2.452,0.023
30/04/2022,10:10:32,1.392,3.0,2.475,0.023
30/04/2022,10:11:32,1.424,3.0,2.499,0.024
30/04/2022,10:12:31,1.434,3.0,2.522,0.023
30/04/2022,10:13:38,1.432,3.0,2.549,0.027
30/04/2022,10:14:32,1.396,3.0,2.57,0.021
30/04/2022,10:15:32,1.408,3.0,2.593,0.023
30/04/2022,10:16:32,1.416,3.0,2.617,0.024
30/04/2022,10:17:31,1.473,3.0,2.64,0.023
30/04/2022,10:18:31,1.483,3.0,2.664,0.024
30/04/2022,10:19:32,1.472,3.0,2.69,0.026
30/04/2022,10:20:40,1.466,3.0,2.718,0.028
30/04/2022,10:22:33,1.451,3.0,2.763,0.045
30/04/2022,10:23:39,1.464,3.0,2.791,0.028
30/04/2022,10:25:32,1.484,3.0,2.836,0.045
30/04/2022,10:26:32,1.498,3.0,2.861,0.025
30/04/2022,10:27:40,1.537,4.0,2.89,0.029
30/04/2022,10:28:31,1.553,4.0,2.911,0.021
30/04/2022,10:29:32,1.547,4.0,2.938,0.027
30/04/2022,10:30:31,1.512,3.0,2.962,0.024
30/04/2022,10:31:32,1.525,4.0,2.989,0.027
30/04/2022,10:32:32,1.539,4.0,3.014,0.025
30/04/2022,10:33:48,1.578,4.0,3.047,0.033
30/04/2022,10:35:32,1.580,4.0,3.093,0.046
30/04/2022,10:36:32,1.597,4.0,3.119,0.026
30/04/2022,10:37:32,1.600,4.0,3.146,0.027
30/04/2022,10:38:31,1.605,4.0,3.172,0.026
30/04/2022,10:39:32,1.609,4.0,3.199,0.027
30/04/2022,10:40:33,1.623,4.0,3.226,0.027